{"data":{"norad_id":66636,"intl_designator":"2025-271V","name":"STARLINK-35968","alt_names":[],"object_type":"PAYLOAD","status":"ACTIVE","operator":null,"country":"US","launch_date":"2025-11-23","launch_site_code":"AFWTR","launch_vehicle":null,"mission":null,"orbit_class":"UNKNOWN","rcs_meters":null,"size_class":null,"mass_kg":null,"dimensions":null,"purposes":["comms"],"wikipedia_slug":null,"has_3d_model":false,"image_url":null,"decayed_at":null,"tle_current":{"epoch":"2026-05-24T17:07:39.179424Z","epoch_age_seconds":110258,"freshness":"FRESH","line1":"1 66636U 25271V   26144.71364791  .00014464  00000+0  49953-3 0  9990","line2":"2 66636  53.1567 146.9949 0001259  76.7198 283.3943 15.30199013 29200","mean_motion":15.30199013,"eccentricity":0.0001259,"inclination_deg":53.1567,"raan_deg":146.9949,"arg_perigee_deg":76.7198,"mean_anomaly_deg":283.3943,"bstar":0.00049953,"rev_number":2920,"period_min":94.105406405722,"perigee_km":474.35517902843,"apogee_km":476.08085382157,"semimajor_km":6853.355016425,"source":"CELESTRAK","updated_at":"2026-05-25T13:38:21.298102Z"}}}